Previsão horária em Allur Reservior Lake

Hoje, 25 Junho, Sexta-feira

Tempo Temperatura Precipitação Vento Pressão Humidade
00:00 +36°C° 0.1 mm 4 m/s 753 mmHg 40%
01:00 +35°C° 0.1 mm 5 m/s 753 mmHg 45%
02:00 +34°C° 0.1 mm 6 m/s 752 mmHg 50%
03:00 +34°C° 0.3 mm 6 m/s 752 mmHg 53%
04:00 +33°C° 0.3 mm 5 m/s 753 mmHg 55%
05:00 +32°C° 0 mm 5 m/s 753 mmHg 58%
06:00 +33°C° 0 mm 6 m/s 753 mmHg 55%
07:00 +34°C° 0 mm 7 m/s 753 mmHg 52%
08:00 +35°C° 0 mm 7 m/s 753 mmHg 48%
09:00 +36°C° 0 mm 7 m/s 753 mmHg 43%
10:00 +39°C° 0 mm 7 m/s 753 mmHg 38%
11:00 +40°C° 0 mm 6 m/s 753 mmHg 34%
12:00 +41°C° 0 mm 7 m/s 752 mmHg 33%
13:00 +41°C° 0 mm 7 m/s 751 mmHg 31%
14:00 +41°C° 0 mm 8 m/s 750 mmHg 30%
15:00 +41°C° 0 mm 7 m/s 750 mmHg 31%
16:00 +40°C° 0 mm 6 m/s 750 mmHg 31%
17:00 +40°C° 0 mm 5 m/s 750 mmHg 32%
18:00 +39°C° 0.1 mm 5 m/s 751 mmHg 35%
19:00 +38°C° 0.1 mm 6 m/s 751 mmHg 38%
20:00 +36°C° 0.1 mm 6 m/s 752 mmHg 42%
21:00 +36°C° 0 mm 5 m/s 752 mmHg 42%
22:00 +36°C° 0 mm 5 m/s 752 mmHg 42%
23:00 +36°C° 0 mm 5 m/s 753 mmHg 43%

Amanhã, 26 Junho, Sábado

Tempo Temperatura Precipitação Vento Pressão Humidade
00:00 +35°C° 0 mm 5 m/s 752 mmHg 44%
01:00 +35°C° 0 mm 6 m/s 752 mmHg 46%
02:00 +34°C° 0 mm 6 m/s 751 mmHg 47%
03:00 +34°C° 0 mm 6 m/s 752 mmHg 48%
04:00 +33°C° 0 mm 6 m/s 752 mmHg 49%
05:00 +33°C° 0 mm 6 m/s 752 mmHg 50%
06:00 +33°C° 0 mm 7 m/s 752 mmHg 48%
07:00 +34°C° 0 mm 7 m/s 753 mmHg 46%
08:00 +34°C° 0 mm 8 m/s 753 mmHg 44%
09:00 +36°C° 0 mm 7 m/s 753 mmHg 41%
10:00 +38°C° 0 mm 7 m/s 753 mmHg 37%
11:00 +40°C° 0 mm 7 m/s 752 mmHg 34%
12:00 +40°C° 0 mm 6 m/s 752 mmHg 33%
13:00 +41°C° 0 mm 6 m/s 751 mmHg 32%
14:00 +41°C° 0 mm 5 m/s 750 mmHg 30%
15:00 +41°C° 0.1 mm 5 m/s 750 mmHg 33%
16:00 +40°C° 0.1 mm 4 m/s 750 mmHg 35%
17:00 +38°C° 0.1 mm 4 m/s 750 mmHg 37%
18:00 +38°C° 0 mm 3 m/s 751 mmHg 39%
19:00 +37°C° 0 mm 3 m/s 752 mmHg 40%
20:00 +37°C° 0 mm 3 m/s 752 mmHg 41%
21:00 +36°C° 0.1 mm 3 m/s 752 mmHg 44%
22:00 +36°C° 0.1 mm 3 m/s 752 mmHg 46%
23:00 +35°C° 0.1 mm 3 m/s 753 mmHg 48%

Depois de amanhã, 27 Junho, Domingo

Tempo Temperatura Precipitação Vento Pressão Humidade
00:00 +35°C° 0 mm 3 m/s 752 mmHg 49%
01:00 +34°C° 0 mm 4 m/s 752 mmHg 49%
02:00 +34°C° 0 mm 4 m/s 752 mmHg 50%
03:00 +34°C° 0 mm 5 m/s 752 mmHg 52%
04:00 +33°C° 0 mm 6 m/s 752 mmHg 54%
05:00 +33°C° 0 mm 6 m/s 753 mmHg 57%
06:00 +33°C° 0 mm 6 m/s 753 mmHg 56%
07:00 +34°C° 0 mm 7 m/s 754 mmHg 55%
08:00 +34°C° 0 mm 7 m/s 754 mmHg 54%
09:00 +35°C° 0 mm 7 m/s 754 mmHg 52%
10:00 +36°C° 0 mm 7 m/s 754 mmHg 49%
11:00 +38°C° 0 mm 6 m/s 754 mmHg 46%
12:00 +38°C° 0.4 mm 6 m/s 753 mmHg 47%
13:00 +36°C° 0.4 mm 6 m/s 753 mmHg 47%
14:00 +36°C° 0.4 mm 5 m/s 752 mmHg 47%
15:00 +36°C° 0.1 mm 5 m/s 752 mmHg 47%
16:00 +36°C° 0.1 mm 6 m/s 752 mmHg 47%
17:00 +36°C° 0.1 mm 6 m/s 753 mmHg 47%
18:00 +35°C° 0 mm 5 m/s 753 mmHg 50%
19:00 +34°C° 0 mm 5 m/s 754 mmHg 54%
20:00 +33°C° 0 mm 5 m/s 754 mmHg 57%
21:00 +33°C° 0.1 mm 5 m/s 754 mmHg 58%
22:00 +33°C° 0.1 mm 4 m/s 754 mmHg 58%
23:00 +33°C° 0.1 mm 4 m/s 754 mmHg 59%

28 Junho, Segunda-feira

Tempo Temperatura Precipitação Vento Pressão Humidade
00:00 +32°C° 0.1 mm 4 m/s 754 mmHg 59%
01:00 +32°C° 0.1 mm 4 m/s 753 mmHg 59%
02:00 +32°C° 0.1 mm 4 m/s 753 mmHg 59%
03:00 +32°C° 0 mm 4 m/s 753 mmHg 60%
04:00 +30°C° 0 mm 4 m/s 753 mmHg 61%
05:00 +30°C° 0 mm 3 m/s 753 mmHg 61%
06:00 +31°C° 0 mm 3 m/s 754 mmHg 58%
07:00 +33°C° 0 mm 3 m/s 754 mmHg 55%
08:00 +33°C° 0 mm 3 m/s 755 mmHg 52%
09:00 +35°C° 0 mm 3 m/s 754 mmHg 49%
10:00 +36°C° 0 mm 3 m/s 754 mmHg 45%
11:00 +37°C° 0 mm 3 m/s 754 mmHg 42%
12:00 +38°C° 0 mm 3 m/s 753 mmHg 40%
13:00 +38°C° 0 mm 3 m/s 752 mmHg 38%
14:00 +39°C° 0 mm 3 m/s 752 mmHg 37%
15:00 +37°C° 0 mm 3 m/s 752 mmHg 43%
16:00 +36°C° 0 mm 4 m/s 752 mmHg 49%
17:00 +34°C° 0 mm 5 m/s 752 mmHg 56%
18:00 +34°C° 0 mm 5 m/s 753 mmHg 57%
19:00 +34°C° 0 mm 5 m/s 753 mmHg 59%
20:00 +34°C° 0 mm 5 m/s 753 mmHg 60%
21:00 +34°C° 0.1 mm 5 m/s 753 mmHg 60%
22:00 +34°C° 0.1 mm 5 m/s 753 mmHg 61%
23:00 +34°C° 0.1 mm 4 m/s 753 mmHg 61%

29 Junho, Terça-feira

Tempo Temperatura Precipitação Vento Pressão Humidade
00:00 +34°C° 0.2 mm 4 m/s 753 mmHg 61%
01:00 +33°C° 0.2 mm 4 m/s 753 mmHg 61%
02:00 +33°C° 0.2 mm 3 m/s 752 mmHg 61%
03:00 +33°C° 0.1 mm 3 m/s 752 mmHg 62%
04:00 +32°C° 0.1 mm 4 m/s 752 mmHg 63%
05:00 +32°C° 0.1 mm 4 m/s 753 mmHg 65%
06:00 +33°C° 0 mm 3 m/s 753 mmHg 59%
07:00 +35°C° 0 mm 3 m/s 754 mmHg 54%
08:00 +36°C° 0 mm 3 m/s 754 mmHg 48%
09:00 +37°C° 0 mm 3 m/s 754 mmHg 44%
10:00 +38°C° 0 mm 3 m/s 753 mmHg 39%
11:00 +39°C° 0 mm 3 m/s 753 mmHg 35%
12:00 +40°C° 0 mm 4 m/s 752 mmHg 36%
13:00 +40°C° 0 mm 4 m/s 752 mmHg 38%
14:00 +40°C° 0 mm 5 m/s 751 mmHg 39%
15:00 +39°C° 0 mm 6 m/s 751 mmHg 44%
16:00 +38°C° 0 mm 7 m/s 751 mmHg 49%
17:00 +37°C° 0 mm 8 m/s 751 mmHg 54%
18:00 +35°C° 0 mm 7 m/s 752 mmHg 59%
19:00 +34°C° 0 mm 7 m/s 752 mmHg 65%
20:00 +33°C° 0 mm 7 m/s 752 mmHg 70%
21:00 +33°C° 0.2 mm 7 m/s 753 mmHg 69%
22:00 +33°C° 0.2 mm 7 m/s 753 mmHg 68%
23:00 +33°C° 0.2 mm 7 m/s 753 mmHg 67%

30 Junho, Quarta-feira

Tempo Temperatura Precipitação Vento Pressão Humidade
00:00 +33°C° 0.1 mm 7 m/s 752 mmHg 68%
01:00 +33°C° 0.1 mm 7 m/s 752 mmHg 68%
02:00 +33°C° 0.1 mm 6 m/s 751 mmHg 69%
03:00 +32°C° 0.2 mm 6 m/s 752 mmHg 68%
04:00 +32°C° 0.2 mm 6 m/s 752 mmHg 67%
05:00 +32°C° 0.2 mm 5 m/s 752 mmHg 67%
06:00 +34°C° 0 mm 5 m/s 753 mmHg 61%
07:00 +35°C° 0 mm 5 m/s 753 mmHg 55%
08:00 +36°C° 0 mm 4 m/s 753 mmHg 50%
09:00 +38°C° 0 mm 4 m/s 753 mmHg 45%
10:00 +40°C° 0 mm 4 m/s 753 mmHg 41%
11:00 +41°C° 0 mm 4 m/s 752 mmHg 36%
12:00 +41°C° 0 mm 4 m/s 752 mmHg 37%
13:00 +41°C° 0 mm 4 m/s 751 mmHg 38%
14:00 +41°C° 0 mm 4 m/s 750 mmHg 39%
15:00 +40°C° 0 mm 5 m/s 750 mmHg 45%
16:00 +38°C° 0 mm 6 m/s 750 mmHg 52%
17:00 +36°C° 0 mm 7 m/s 750 mmHg 58%
18:00 +36°C° 0 mm 7 m/s 751 mmHg 59%
19:00 +35°C° 0 mm 7 m/s 751 mmHg 60%
20:00 +35°C° 0 mm 7 m/s 751 mmHg 61%
21:00 +34°C° 0 mm 7 m/s 751 mmHg 61%
22:00 +34°C° 0 mm 6 m/s 752 mmHg 62%
23:00 +34°C° 0 mm 6 m/s 752 mmHg 62%
Mostrar mais